This demonstration page uses our WeatherBlox Daily Observations layout. Learn more.

Left ArrowRight Arrow

39.01783, -85.05884

Hourly Observations for February 6, 2019

Temp ( °F °C ) Dew Point ( °F °C ) Humidity (%) Winds ( mph kmh ) Pressure ( in mb ) Visibility ( mi km ) Precip ( " mm )
12:25 am 00:25 Cloudy with Rain 45 7.2 44 6.7 97 97 E 7 11 30.02 1017 2 3 0.06 1.52
12:36 am 00:36 Cloudy with Heavy Rain 46 7.8 44 6.7 93 93 NNE 7 11 30.02 1017 1 2 0.11 2.79
12:52 am 00:52 Cloudy with Rain 45 7.2 44 6.7 97 97 E 7 11 29.99 1016 1 2 0.20 5.08
12:56 am 00:56 Cloudy with Rain 45 7.2 44 6.7 97 97 E 8 13 30.00 1016 4 6 0.00 0.03
1:19 am 01:19 Cloudy with Light Rain 46 7.8 44 6.7 93 93 ESE 6 9 29.98 1015 8 13 0.01 0.25
1:52 am 01:52 Cloudy with Rain 48 8.9 46 7.8 93 93 SE 7 11 29.95 1014 5 8 0.06 1.52
2:22 am 02:22 Cloudy with Heavy Rain 49 9.4 47 8.3 93 93 ESE 6 9 29.96 1015 3 4 0.04 1.02
2:39 am 02:39 Cloudy with Rain 49 9.4 48 8.9 97 97 SE 8 13 29.94 1014 3 5 0.14 3.56
2:52 am 02:52 Cloudy with Light Rain 49 9.4 48 8.9 97 97 SSE 8 13 29.92 1013 4 6 0.17 4.32
3:12 am 03:12 Cloudy with Light Rain 51 10.6 50 10 96 96 SSE 10 17 29.93 1013 4 6 0.01 0.25
3:39 am 03:39 Cloudy with Heavy Rain 52 11.1 50 10 93 93 S 8 13 29.92 1013 2 3 0.01 0.25
3:52 am 03:52 Cloudy with Light Rain 52 11.1 51 10.6 97 97 S 8 13 29.90 1013 4 6 0.07 1.78
4:31 am 04:31 Cloudy with Mist and Fog 53 11.7 51 10.6 93 93 S 7 11 29.89 1012 5 8 0.00 0.03
4:52 am 04:52 Cloudy with Mist and Fog 53 11.7 52 11.1 96 96 S 7 11 29.88 1012 6 10 0.00 0.03
5:37 am 05:37 Cloudy with Mist and Fog 53 11.7 52 11.1 96 96 S 8 13 29.88 1012 4 6 0.00 0.00
5:52 am 05:52 Cloudy with Light Rain 54 12.2 53 11.7 97 97 S 9 15 29.86 1011 4 6 0.00 0.03
6:14 am 06:14 Cloudy with Light Rain 56 13.3 55 12.8 97 97 S 10 17 29.87 1011 5 8 0.03 0.76
6:33 am 06:33 Cloudy with Mist and Fog 57 13.9 55 12.8 93 93 S 10 17 29.86 1011 6 10 0.05 1.27
6:52 am 06:52 Cloudy with Nearby Thunderstorms 57 13.9 55 12.8 93 93 S 13 20 29.86 1011 2 3 0.11 2.79
6:58 am 06:58 Cloudy with Thunderstorms 57 13.9 56 13.3 96 96 S 12 19 29.86 1011 3 4 0.08 2.03
7:09 am 07:09 Cloudy with Thunderstorms 57 13.9 56 13.3 96 96 S 9 15 29.86 1011 3 4 0.13 3.30
7:18 am 07:18 Cloudy with Light Rain 57 13.9 56 13.3 96 96 S 9 15 29.86 1011 6 10 0.14 3.56
7:45 am 07:45 Cloudy with Mist and Fog 57 13.9 56 13.3 96 96 S 7 11 29.85 1011 6 10 0.15 3.81
7:52 am 07:52 Cloudy with Mist and Fog 57 13.9 56 13.3 96 96 SSW 3 6 29.85 1011 5 8 0.15 3.81
8:05 am 08:05 Cloudy with Mist and Fog 57 13.9 55 12.8 93 93 Calm 29.85 1011 3 4 0.00 0.00
8:23 am 08:23 Cloudy with Fog 54 12.2 52 11.1 93 93 N 14 22 29.86 1011 5 8 0.00 0.00
8:52 am 08:52 Cloudy with Light Rain 54 12.2 52 11.1 93 93 ENE 7 11 29.84 1011 5 8 0.00 0.03
9:03 am 09:03 Cloudy with Light Rain 53 11.7 52 11.1 96 96 ENE 7 11 29.84 1011 2 2 0.01 0.25
9:07 am 09:07 Cloudy with Light Rain 54 12.2 52 11.1 93 93 E 5 7 29.85 1011 1 1 0.01 0.25
9:52 am 09:52 Cloudy with Rain 53 11.7 51 10.6 93 93 NNW 13 20 29.88 1012 2 3 0.34 8.64
9:59 am 09:59 Cloudy with Rain 53 11.7 52 11.1 96 96 N 8 13 29.87 1012 2 3 0.05 1.27
10:04 am 10:04 Cloudy with Light Rain 53 11.7 52 11.1 96 96 NE 7 11 29.87 1012 6 10 0.06 1.52
10:31 am 10:31 Cloudy with Light Rain 55 12.8 54 12.2 96 96 Calm 29.86 1011 4 6 0.09 2.29
10:52 am 10:52 Cloudy with Light Rain 56 13.3 54 12.2 93 93 Calm 29.86 1011 7 11 0.12 3.05
11:20 am 11:20 Cloudy with Light Rain 56 13.3 54 12.2 93 93 W 7 11 29.89 1012 4 6 0.01 0.25
11:48 am 11:48 Cloudy with Light Rain 55 13 55 13 100 100 WNW 9 15 29.90 1013 2 3 0.06 1.52
11:52 am 11:52 Cloudy with Light Rain 56 13.3 55 12.8 97 97 WNW 8 13 29.89 1012 2 3 0.06 1.52
11:57 am 11:57 Cloudy with Light Rain 56 13.3 55 12.8 97 97 NW 6 9 29.89 1012 1 1 0.01 0.25
12:21 pm 12:21 Cloudy with Light Rain 57 13.9 56 13.3 96 96 W 3 6 29.88 1012 2 3 0.02 0.51
12:39 pm 12:39 Cloudy with Mist and Fog 58 14.4 56 13.3 93 93 W 5 7 29.87 1011 2 2 0.02 0.51
12:52 pm 12:52 Cloudy with Mist and Fog 58 14.4 56 13.3 93 93 SW 6 9 29.86 1011 2 2 0.02 0.51
1:09 pm 13:09 Cloudy with Mist and Fog 58 14.4 56 13.3 93 93 W 6 9 29.87 1011 0 0 0.00 0.00
1:36 pm 13:36 Cloudy 60 15.6 57 13.9 90 90 WNW 8 13 29.86 1011 7 11 0.00 0.00
1:52 pm 13:52 Cloudy 60 15.6 57 13.9 90 90 W 7 11 29.85 1011 8 13 0.00 0.00
2:52 pm 14:52 Cloudy 60 15.6 56 13.3 86 86 W 7 11 29.87 1012 10 16 0.00 0.00
3:33 pm 15:33 Cloudy 59 15 56 13.3 90 90 WSW 3 6 29.88 1012 10 16 0.00 0.00
3:52 pm 15:52 Cloudy 59 15 55 12.8 87 87 WSW 5 7 29.89 1012 10 16 0.00 0.00
4:19 pm 16:19 Cloudy 59 15 55 12.8 87 87 WSW 6 9 29.90 1013 10 16 0.00 0.00
4:52 pm 16:52 Cloudy 59 15 55 12.8 87 87 SW 6 9 29.90 1013 10 16 0.00 0.00
5:32 pm 17:32 Cloudy 57 13.9 54 12.2 90 90 S 3 6 29.90 1012 10 16 0.00 0.00
5:52 pm 17:52 Cloudy 57 13.9 54 12.2 90 90 Calm 29.89 1012 10 16 0.00 0.00
6:52 pm 18:52 Cloudy 56 13.3 54 12.2 93 93 Calm 29.92 1013 10 16 0.00 0.00
7:19 pm 19:19 Cloudy 55 12.8 53 11.7 93 93 Calm 29.93 1014 10 16 0.00 0.00
7:52 pm 19:52 Cloudy 54 12.2 52 11.1 93 93 Calm 29.93 1013 10 16 0.00 0.00
8:52 pm 20:52 Cloudy 52 11.1 50 10 93 93 S 3 6 29.93 1014 7 11 0.00 0.00
9:21 pm 21:21 Cloudy 55 12.8 53 11.7 93 93 Calm 29.94 1014 7 11 0.00 0.00
9:52 pm 21:52 Cloudy with Light Rain 53 11.7 51 10.6 93 93 Calm 29.96 1014 9 14 0.00 0.03
10:52 pm 22:52 Cloudy with Light Rain 54 12.2 52 11.1 93 93 NNE 6 9 29.95 1014 5 8 0.01 0.25
11:19 pm 23:19 Cloudy with Light Rain 55 12.8 52 11.1 90 90 ENE 3 6 29.96 1015 7 11 0.01 0.25
11:52 pm 23:52 Cloudy with Light Rain 54 12.2 52 11.1 93 93 ENE 3 6 29.94 1014 5 8 0.03 0.76

Powered by AerisWeather